Printer-friendly version

IAU Minor Planet Center

Minor Planet Center

MPEC 2006-T27 : 2006 TC1

The following Minor Planet Electronic Circular may be linked-to from your own Web pages, but must not otherwise be redistributed electronically.


Read MPEC 2006-T26 Read MPEC 2006-T28


M.P.E.C. 2006-T27                                Issued 2006 Oct. 4, 15:29 UT

     The Minor Planet Electronic Circulars contain information on unusual
         minor planets and routine data on comets.  They are published
   on behalf of Commission 20 of the International Astronomical Union by the
          Minor Planet Center, Smithsonian Astrophysical Observatory,
                          Cambridge, MA 02138, U.S.A.

             Prepared using the Tamkin Foundation Computer Network

                              MPC@CFA.HARVARD.EDU
          URL http://cfa-www.harvard.edu/iau/mpc.html  ISSN 1523-6714

                                   2006 TC1

Observations:
     K06T01C* C2006 10 03.31668 00 59 34.65 +14 49 19.8          19.8 V ET027G96
     K06T01C  C2006 10 03.32419 00 59 33.97 +14 49 18.8          19.9 V ET027G96
     K06T01C  C2006 10 03.32941 00 59 33.46 +14 49 17.7          19.6 V ET027G96
     K06T01C  C2006 10 03.33464 00 59 32.96 +14 49 16.9          19.8 V ET027G96
     K06T01C  C2006 10 03.36926 00 59 29.76 +14 49 10.8          19.9 V ET027G96
     K06T01C  C2006 10 03.37601 00 59 29.07 +14 49 09.8          19.6 V ET027G96
     K06T01C  C2006 10 03.38278 00 59 28.53 +14 49 08.5          19.6 V ET027G96
     K06T01C  C2006 10 03.38950 00 59 27.85 +14 49 07.2          19.8 V ET027G96
     K06T01C  C2006 10 03.94989 00 58 38.18 +14 47 20.0                 ET027J95
     K06T01C  C2006 10 03.98905 00 58 34.57 +14 47 14.4          19.7 V ET027J77
     K06T01C  C2006 10 03.99864 00 58 33.65 +14 47 11.3                 ET027J95
     K06T01C  C2006 10 04.00307 00 58 33.22 +14 47 10.5          20.2 R ET027J95
     K06T01C  C2006 10 04.01237 00 58 32.34 +14 47 09.1          19.4 V ET027J77
     K06T01C  C2006 10 04.03422 00 58 30.31 +14 47 05.8          19.6 V ET027J77
     K06T01C  C2006 10 04.22026 00 58 13.98 +14 46 31.9          19.6 V ET027G96
     K06T01C  C2006 10 04.22584 00 58 13.44 +14 46 31.1          19.7 V ET027G96
     K06T01C  C2006 10 04.23142 00 58 12.90 +14 46 30.1          19.5 V ET027G96
     K06T01C  C2006 10 04.23708 00 58 12.39 +14 46 29.2          19.9 V ET027G96
     K06T01C  C2006 10 04.29223 00 58 07.13 +14 46 19.9          19.8 R ET027854
     K06T01C  C2006 10 04.29798 00 58 06.63 +14 46 18.1          19.8 R ET027854
     K06T01C  C2006 10 04.30325 00 58 06.17 +14 46 16.3          19.7 R ET027854

Observer details:
854 Sabino Canyon Observatory, Tucson.  Observer J. E. McGaha.  0.36-m f/10.0
    Schmidt-Cassegrain + CCD.
G96 Mt. Lemmon Survey.  Observer E. C. Beshore.  Measurers E. C. Beshore,
    E. J. Christensen, G. J. Garradd, A. R. Gibbs, A. D. Grauer, R. E. Hill,
    R. A. Kowalski, S. M. Larson, R. H. McNaught.  1.5-m reflector + CCD.
J77 Golden Hill Observatory, Stourton Caundle.  Observer R. Miles.  0.28-m
    f/10 Schmidt-Cassegrain + CCD.
J95 Great Shefford.  Observer P. Birtwhistle.  0.40-m f/6.0 Schmidt-Cassegrain
    + CCD.

Orbital elements:
2006 TC1                                                 Earth MOID = 0.1488 AU
Epoch 2006 Sept. 22.0 TT = JDT 2454000.5                MPC
M 277.03961              (2000.0)            P               Q
n   0.46243587     Peri.  160.24723     -0.61209948     -0.78964657
a   1.6561578      Node   327.45338     +0.71453710     -0.52935326
e   0.3158346      Incl.    4.51370     +0.33877864     -0.31023122
P   2.13           H   18.8           G   0.15           U   9
Residuals in seconds of arc
061003 G96  0.1-  0.3-    061003 G96  0.1-  0.3+    061004 G96  0.1-  0.3-
061003 G96  0.2+  0.0     061003 J95  0.1-  0.5-    061004 G96  0.3-  0.1-
061003 G96  0.1-  0.2-    061003 J77  0.4+  1.1+    061004 G96  0.4-  0.1-
061003 G96  0.3-  0.0     061003 J95  0.2+  0.1-    061004 G96  0.1-  0.1+
061003 G96  0.2+  0.2+    061004 J95  0.0   0.1-    061004 854  0.5-  1.1+
061003 G96  0.6-  0.4+    061004 J77  0.3-  0.2+    061004 854  0.2+  0.5+
061003 G96  0.7+  0.4+    061004 J77  0.1-  1.0+    061004 854  0.8+  0.3-

Ephemeris:
2006 TC1                 a,e,i = 1.66, 0.32, 5                   q = 1.1331
Date    TT    R. A. (2000) Decl.     Delta      r     Elong.  Phase     V
2006 10 02    01 01.51   +14 53.0    0.725    1.714   166.3     7.9    19.8
2006 10 12    00 45.86   +14 13.2    0.679    1.673   171.1     5.3    19.5
2006 10 22    00 29.46   +13 10.1    0.656    1.630   161.3    11.3    19.6
2006 11 01    00 15.22   +11 57.5    0.653    1.587   148.6    19.0    19.8
2006 11 11    00 05.42   +10 52.7    0.667    1.543   136.4    26.3    20.1
2006 11 21    00 01.18   +10 08.5    0.692    1.499   125.4    32.5    20.3
2006 12 01    00 02.71   +09 52.5    0.723    1.454   115.7    37.7    20.4
2006 12 11    00 09.55   +10 06.0    0.758    1.410   107.3    41.8    20.6
2006 12 21    00 21.07   +10 47.0    0.791    1.367   100.2    45.1    20.7
2006 12 31    00 36.74   +11 52.5    0.822    1.325    94.0    47.8    20.8
2007 01 10    00 56.09   +13 17.7    0.848    1.285    88.8    49.9    20.8
2007 01 20    01 18.81   +14 57.6    0.870    1.249    84.4    51.7    20.9
2007 01 30    01 44.79   +16 46.9    0.888    1.215    80.8    53.1    20.9
2007 02 09    02 13.87   +18 38.9    0.901    1.187    77.8    54.3    20.9
2007 02 19    02 46.05   +20 26.4    0.910    1.164    75.5    55.3    20.9
2007 03 01    03 21.24   +22 01.2    0.918    1.147    73.7    56.0    20.9
2007 03 11    03 59.21   +23 14.5    0.926    1.136    72.5    56.5    21.0
2007 03 21    04 39.56   +23 58.0    0.935    1.133    71.8    56.6    21.0
2007 03 31    05 21.67   +24 04.4    0.947    1.137    71.5    56.4    21.0
2007 04 10    06 04.65   +23 29.5    0.965    1.148    71.4    55.8    21.0
2007 04 20    06 47.58   +22 12.7    0.990    1.166    71.6    54.8    21.1
2007 04 30    07 29.58   +20 17.2    1.023    1.190    71.8    53.5    21.2
2007 05 10    08 09.95   +17 49.5    1.065    1.219    71.9    51.9    21.3
2007 05 20    08 48.32   +14 57.6    1.117    1.253    71.9    50.1    21.4
2007 05 30    09 24.53   +11 50.0    1.179    1.290    71.6    48.2    21.5
2007 06 09    09 58.60   +08 34.3    1.249    1.330    71.1    46.2    21.7
2007 06 19    10 30.75   +05 16.6    1.329    1.372    70.2    44.2    21.8
2007 06 29    11 01.20   +02 01.4    1.416    1.415    68.9    42.1    21.9

Timothy B. Spahr             (C) Copyright 2006 MPC           M.P.E.C. 2006-T27

Read MPEC 2006-T26 Read MPEC 2006-T28


Our Web policy. Index to the CBAT/MPC/ICQ pages.


Valid HTML 4.01!